Ionia, MI

4:04 AM EST on November 18, 2019 (GMT -0500)
Ionia

Weather History for KY70 - September, 2019

Change the Weather History Date:

Saturday, September 7, 2019

  Actual Average (WUND) Record (WUND)
Temperature  
Mean Temperature 65 °F -  
Max Temperature 75 °F - - (-1)
Min Temperature 55 °F - - (-1)
Growing Degree Days 15 (Base 50)    
Moisture  
Dew Point 56 °F    
Average Humidity 76    
Maximum Humidity 95    
Minimum Humidity 49    
Precipitation  
Precipitation 0.00 in - - ()
Sea Level Pressure  
Sea Level Pressure 30.01 in    
Wind  
Wind Speed 6 mph ()    
Max Wind Speed 15 mph    
Max Gust Speed 21 mph    
Visibility 9.2 miles    
Events      
Averages and records for this station are not official NWS values.
T = Trace of Precipitation, MM = Missing Value Source: Averaged Metar Reports

Daily Weather History Graph

Daily Weather History Graph

Search for Another Location

Airport or City:

Astronomy

Sep. 07, 2019 Rise Set
Actual Time 7:11 AM EDT 8:04 PM EDT
Civil Twilight 6:42 AM EDT 8:33 PM EDT
Nautical Twilight 6:07 AM EDT 9:07 PM EDT
Astronomical Twilight 5:31 AM EDT 9:43 PM EDT
Moon 4:27 PM EDT (9/7) 12:55 AM EDT (9/7)
Length of Visible Light 13h 51m
Length of Day
12h 53m
Waxing Gibbous, 65% of the Moon is Illuminated
Sep 7
Waxing Gibbous
Sep 14
Full
Sep 21
Last Quarter
Sep 28
New
Oct 5
First Quarter

Hourly Weather History & Observations

Time (EDT) Temp. Dew Point Humidity Pressure Visibility Wind Dir Wind Speed Gust Speed Precip Events Conditions
12:16 AM 62.8 °F 59.5 °F 89% 29.97 in 10.0 mi NNW 4.6 mph - N/A   Overcast
12:35 AM 61.9 °F 58.5 °F 89% 29.97 in 10.0 mi North 4.6 mph - N/A   Overcast
12:36 AM 62.1 °F 58.5 °F 88% 29.97 in 10.0 mi North 5.8 mph - N/A   Overcast
12:55 AM 61.5 °F 57.9 °F 88% 29.97 in 10.0 mi NNW 5.8 mph - N/A   Mostly Cloudy
1:00 AM 61.5 °F 58.1 °F 89% 29.97 in 10.0 mi NW 9.2 mph - N/A   Mostly Cloudy
1:18 AM 61.3 °F 57.6 °F 87% 29.98 in 10.0 mi NW 6.9 mph - N/A   Overcast
1:36 AM 61.0 °F 57.4 °F 88% 29.99 in 10.0 mi NW 6.9 mph - N/A   Overcast
1:55 AM 60.3 °F 57.0 °F 89% 29.99 in 10.0 mi NNW 6.9 mph - N/A   Overcast
2:15 AM 59.9 °F 56.7 °F 89% 29.99 in 10.0 mi NW 6.9 mph - N/A   Mostly Cloudy
2:16 AM 59.9 °F 56.7 °F 89% 29.99 in 10.0 mi NW 6.9 mph - N/A   Mostly Cloudy
2:39 AM 58.6 °F 56.3 °F 92% 29.99 in 10.0 mi NW 5.8 mph - N/A   Scattered Clouds
2:57 AM 58.3 °F 55.9 °F 92% 29.98 in 10.0 mi NW 4.6 mph - N/A   Clear
3:15 AM 58.1 °F 55.9 °F 93% 29.98 in 10.0 mi WNW 5.8 mph - N/A   Clear
3:35 AM 57.2 °F 55.2 °F 93% 29.98 in 10.0 mi WNW 4.6 mph - N/A   Clear
3:55 AM 57.2 °F 55.4 °F 94% 29.99 in 10.0 mi West 5.8 mph - N/A   Clear
3:59 AM 57.2 °F 55.4 °F 94% 29.99 in 10.0 mi West 4.6 mph - N/A   Clear
4:36 AM 56.8 °F 55.0 °F 94% 29.99 in 10.0 mi West 4.6 mph - N/A   Clear
4:55 AM 57.0 °F 55.2 °F 94% 29.99 in 10.0 mi West 3.5 mph - N/A   Mostly Cloudy
5:16 AM 55.9 °F 54.3 °F 94% 30.00 in 10.0 mi WNW 3.5 mph - N/A   Scattered Clouds
5:39 AM 55.4 °F 53.8 °F 94% 30.00 in 7.0 mi West 3.5 mph - N/A   Mostly Cloudy
5:57 AM 56.5 °F 54.9 °F 94% 30.01 in 10.0 mi Calm Calm - N/A   Overcast
6:15 AM 57.0 °F 55.4 °F 94% 30.02 in 10.0 mi WNW 3.5 mph - N/A   Overcast
6:16 AM 57.0 °F 55.4 °F 94% 30.02 in 10.0 mi NW 3.5 mph - N/A   Overcast
6:35 AM 57.4 °F 55.8 °F 94% 30.02 in 10.0 mi Calm Calm - N/A   Overcast
6:55 AM 57.2 °F 55.6 °F 94% 30.02 in 7.0 mi Calm Calm - N/A   Overcast
7:18 AM 57.2 °F 55.4 °F 94% 30.02 in 10.0 mi Calm Calm - N/A   Overcast
7:36 AM 57.2 °F 55.4 °F 94% 30.02 in 10.0 mi Calm Calm - N/A   Overcast
7:55 AM 56.7 °F 55.2 °F 95% 30.03 in 10.0 mi Calm Calm - N/A   Overcast
7:56 AM 56.7 °F 55.2 °F 95% 30.03 in 10.0 mi Calm Calm - N/A   Overcast
8:15 AM 56.7 °F 55.2 °F 95% 30.03 in 1.8 mi WNW 3.5 mph - N/A   Overcast
8:16 AM 56.7 °F 55.0 °F 94% 30.03 in 1.8 mi WNW 3.5 mph - N/A   Overcast
8:39 AM 56.7 °F 55.0 °F 94% 30.03 in 1.2 mi Calm Calm - N/A   Overcast
8:57 AM 56.7 °F 55.2 °F 95% 30.03 in 0.8 mi West 3.5 mph - N/A   Overcast
9:15 AM 56.8 °F 55.4 °F 95% 30.04 in 0.8 mi West 5.8 mph - N/A   Overcast
9:35 AM 56.3 °F 54.9 °F 95% 30.03 in 1.5 mi West 4.6 mph - N/A   Overcast
9:36 AM 56.3 °F 54.9 °F 95% 30.03 in 1.2 mi WSW 4.6 mph - N/A   Overcast
9:59 AM 57.2 °F 55.6 °F 94% 30.04 in 4.0 mi West 3.5 mph - N/A   Overcast
10:17 AM 58.5 °F 56.1 °F 92% 30.04 in 10.0 mi Calm Calm - N/A   Overcast
10:35 AM 60.1 °F 56.1 °F 87% 30.04 in 10.0 mi North - - N/A   Overcast
10:55 AM 62.8 °F 56.5 °F 80% 30.04 in 10.0 mi West 6.9 mph - N/A   Overcast
11:15 AM 63.5 °F 56.1 °F 77% 30.03 in 10.0 mi SW 3.5 mph - N/A   Mostly Cloudy
11:19 AM 63.3 °F 55.8 °F 76% 30.02 in 10.0 mi Calm Calm - N/A   Mostly Cloudy
11:38 AM 65.5 °F 55.4 °F 70% 30.02 in 10.0 mi North - - N/A   Mostly Cloudy
11:56 AM 66.6 °F 55.4 °F 67% 30.02 in 10.0 mi West 9.2 mph - N/A   Mostly Cloudy
12:15 PM 68.2 °F 55.4 °F 64% 30.01 in 10.0 mi WSW 9.2 mph - N/A   Scattered Clouds
12:16 PM 68.4 °F 55.4 °F 63% 30.01 in 10.0 mi WSW 9.2 mph - N/A   Scattered Clouds
12:35 PM 68.7 °F 54.3 °F 60% 30.00 in 10.0 mi WSW 5.8 mph - N/A   Scattered Clouds
12:36 PM 68.9 °F 54.7 °F 60% 30.00 in 10.0 mi WSW 8.1 mph - N/A   Scattered Clouds
12:59 PM 68.9 °F 53.2 °F 57% 30.00 in 10.0 mi West 11.5 mph - N/A   Clear
1:16 PM 71.1 °F 55.4 °F 58% 29.99 in 10.0 mi West 10.4 mph - N/A   Clear
1:35 PM 72.1 °F 54.7 °F 54% 29.99 in 10.0 mi West 8.1 mph - N/A   Scattered Clouds
1:36 PM 72.3 °F 54.5 °F 53% 29.99 in 10.0 mi WSW 8.1 mph - N/A   Scattered Clouds
1:55 PM 73.2 °F 54.5 °F 52% 29.99 in 10.0 mi West 9.2 mph 17.3 mph N/A   Scattered Clouds
1:56 PM 73.4 °F 54.3 °F 51% 29.99 in 10.0 mi West 9.2 mph 17.3 mph N/A   Scattered Clouds
2:15 PM 72.9 °F 53.6 °F 51% 29.98 in 10.0 mi West 12.7 mph 18.4 mph N/A   Mostly Cloudy
2:20 PM 72.9 °F 53.8 °F 51% 29.98 in 10.0 mi West 15.0 mph 18.4 mph N/A   Scattered Clouds
2:38 PM 74.8 °F 56.1 °F 52% 29.98 in 10.0 mi WSW 6.9 mph - N/A   Mostly Cloudy
2:56 PM 75.0 °F 54.7 °F 49% 29.98 in 10.0 mi West 13.8 mph - N/A   Overcast
3:15 PM 72.7 °F 54.5 °F 53% 29.97 in 10.0 mi West 12.7 mph - N/A   Overcast
3:16 PM 72.9 °F 54.7 °F 53% 29.97 in 10.0 mi West 13.8 mph - N/A   Overcast
3:35 PM 73.8 °F 55.0 °F 52% 29.97 in 10.0 mi West 12.7 mph 16.1 mph N/A   Mostly Cloudy
4:17 PM 72.7 °F 54.7 °F 53% 29.98 in 10.0 mi WNW 12.7 mph 16.1 mph N/A   Overcast
4:35 PM 72.9 °F 54.1 °F 52% 29.98 in 10.0 mi West 13.8 mph 20.7 mph N/A   Overcast
4:36 PM 72.7 °F 54.1 °F 52% 29.98 in 10.0 mi West 11.5 mph 20.7 mph N/A   Overcast
4:55 PM 71.8 °F 55.2 °F 56% 29.98 in 10.0 mi WNW 15.0 mph 19.6 mph N/A   Overcast
5:15 PM 70.9 °F 55.6 °F 58% 29.98 in 10.0 mi WNW 13.8 mph 17.3 mph N/A   Mostly Cloudy
5:56 PM 71.4 °F 54.7 °F 55% 29.99 in 10.0 mi West 11.5 mph 18.4 mph N/A   Clear
6:15 PM 70.7 °F 55.8 °F 59% 29.99 in 10.0 mi West 10.4 mph - N/A   Scattered Clouds
6:16 PM 70.7 °F 55.6 °F 59% 29.99 in 10.0 mi West 11.5 mph - N/A   Scattered Clouds
6:35 PM 69.8 °F 56.1 °F 62% 29.99 in 10.0 mi WNW 9.2 mph - N/A   Scattered Clouds
6:36 PM 69.8 °F 56.3 °F 62% 29.99 in 10.0 mi WNW 9.2 mph - N/A   Scattered Clouds
6:59 PM 68.5 °F 56.5 °F 65% 30.00 in 10.0 mi WNW 6.9 mph - N/A   Mostly Cloudy
7:17 PM 68.9 °F 57.2 °F 66% 30.00 in 10.0 mi WNW 9.2 mph - N/A   Scattered Clouds
7:35 PM 68.0 °F 57.6 °F 69% 30.01 in 10.0 mi WNW 6.9 mph - N/A   Clear
7:55 PM 67.1 °F 57.6 °F 71% 30.01 in 10.0 mi West 5.8 mph - N/A   Clear
7:56 PM 67.1 °F 57.6 °F 71% 30.01 in 10.0 mi West 5.8 mph - N/A   Clear
8:15 PM 66.6 °F 57.0 °F 71% 30.02 in 10.0 mi WNW 6.9 mph - N/A   Clear
8:20 PM 66.4 °F 56.7 °F 71% 30.02 in 10.0 mi WNW 8.1 mph - N/A   Clear
8:38 PM 65.8 °F 56.1 °F 71% 30.02 in 10.0 mi NW 6.9 mph - N/A   Clear
8:56 PM 65.5 °F 56.1 °F 72% 30.02 in 10.0 mi NW 5.8 mph - N/A   Clear
9:15 PM 65.1 °F 56.1 °F 73% 30.03 in 10.0 mi NW 5.8 mph - N/A   Clear
9:35 PM 64.2 °F 55.9 °F 74% 30.02 in 10.0 mi NW 4.6 mph - N/A   Clear
9:59 PM 63.7 °F 55.8 °F 75% 30.02 in 10.0 mi Calm Calm - N/A   Clear
10:17 PM 64.0 °F 55.6 °F 74% 30.03 in 10.0 mi NNW 3.5 mph - N/A   Clear
10:35 PM 63.0 °F 55.6 °F 77% 30.03 in 10.0 mi NNW 3.5 mph - N/A   Clear
10:36 PM 63.0 °F 55.6 °F 77% 30.03 in 10.0 mi NNW 3.5 mph - N/A   Clear
10:55 PM 62.8 °F 55.4 °F 77% 30.03 in 10.0 mi NNW 4.6 mph - N/A   Clear
10:56 PM 62.8 °F 55.4 °F 77% 30.03 in 10.0 mi NNW 4.6 mph - N/A   Clear
11:15 PM 62.1 °F 55.0 °F 78% 30.03 in 10.0 mi North 4.6 mph - N/A   Clear
11:20 PM 62.4 °F 54.9 °F 76% 30.04 in 10.0 mi NNW 3.5 mph - N/A   Clear
11:38 PM 61.9 °F 54.5 °F 77% 30.04 in 10.0 mi Calm Calm - N/A   Clear
11:56 PM 61.2 °F 54.7 °F 79% 30.05 in 10.0 mi Calm Calm - N/A   Clear